EW6457 Weather Reports


Display with metric or nautical units.
time (UTC)temp
F
wind
direction
speed
MPH
gust
MPH
rain 1hr
in
rain 24hr
in
rain mn
in
humidity
%
barometer
mb
20200405090258 46 244 1.0 5.0 0.00 0.01 0.00 86 1015.8
20200405085752 45 250 0.0 3.0 0.00 0.01 0.00 86 1015.8
20200405085259 45 257 0.0 2.0 0.00 0.01 0.00 87 1015.8
20200405084805 45 301 0.0 0.0 0.00 0.01 0.00 87 1015.8
20200405084314 45 301 0.0 0.0 0.00 0.01 0.00 87 1015.9
20200405083757 45 303 0.0 2.0 0.00 0.01 0.00 87 1015.8
20200405083254 45 344 0.0 2.0 0.00 0.01 0.00 87 1015.8
20200405082757 45 44 0.0 0.0 0.00 0.01 0.00 87 1015.7
20200405082301 45 57 0.0 0.0 0.00 0.01 0.00 87 1015.6
20200405081758 45 71 2.0 1.0 0.00 0.01 0.00 88 1015.6
20200405081253 45 205 3.0 8.0 0.00 0.01 0.00 88 1015.4
20200405080752 45 220 3.0 8.0 0.00 0.01 0.00 88 1015.4
20200405080241 45 192 4.0 9.0 0.00 0.01 0.00 88 1015.4
20200405075725 45 166 4.0 10.0 0.00 0.01 0.00 88 1015.4
20200405075230 45 192 4.0 10.0 0.00 0.01 0.00 88 1015.4
20200405074735 45 175 4.0 10.0 0.00 0.01 0.00 87 1015.4
20200405074229 45 221 4.0 10.0 0.00 0.01 0.00 87 1015.5
20200405073716 45 205 3.0 9.0 0.00 0.01 0.00 88 1015.5
20200405073224 45 221 4.0 9.0 0.00 0.01 0.00 88 1015.5
20200405072707 45 209 4.0 7.0 0.00 0.01 0.00 88 1015.5
20200405072157 45 192 3.0 8.0 0.00 0.01 0.00 88 1015.6
20200405071708 45 200 3.0 8.0 0.00 0.01 0.00 88 1015.6
20200405071207 45 176 3.0 8.0 0.00 0.01 0.00 88 1015.7
20200405070715 45 191 3.0 8.0 0.00 0.01 0.00 88 1015.7
20200405070216 45 194 3.0 8.0 0.00 0.01 0.00 87 1015.6
20200405065701 45 172 3.0 8.0 0.00 0.01 0.00 87 1015.6
20200405065158 45 165 3.0 7.0 0.00 0.01 0.00 87 1015.7
20200405064652 45 165 3.0 7.0 0.00 0.01 0.00 87 1015.7
20200405064136 45 174 3.0 7.0 0.00 0.01 0.00 87 1015.8
20200405063621 45 212 3.0 7.0 0.00 0.01 0.00 87 1015.9
20200405063102 45 230 3.0 6.0 0.00 0.01 0.00 87 1015.9
20200405062604 45 219 3.0 9.0 0.00 0.01 0.00 87 1015.9
20200405062106 45 188 3.0 9.0 0.00 0.01 0.00 87 1015.9
20200405061606 45 202 3.0 9.0 0.00 0.01 0.00 87 1016.0
20200405061104 45 258 3.0 9.0 0.00 0.01 0.00 86 1016.0
20200405060556 45 196 3.0 8.0 0.00 0.01 0.00 86 1016.0
20200405060054 45 229 3.0 8.0 0.00 0.01 0.00 86 1016.0
20200405055535 45 223 3.0 8.0 0.00 0.01 0.00 86 1016.0
20200405055018 45 150 3.0 8.0 0.00 0.01 0.00 87 1016.0
20200405054522 45 248 3.0 11.0 0.00 0.01 0.00 87 1015.9
20200405054024 44 207 3.0 11.0 0.00 0.01 0.00 87 1015.8
20200405053517 44 184 3.0 11.0 0.00 0.01 0.00 87 1015.8
20200405053015 44 239 4.0 11.0 0.00 0.01 0.00 87 1015.8
20200405052517 44 225 3.0 9.0 0.00 0.01 0.00 87 1015.9
20200405052020 44 190 3.0 8.0 0.00 0.01 0.00 86 1015.8
20200405051526 45 183 3.0 8.0 0.00 0.01 0.00 86 1015.9
20200405051010 45 238 3.0 7.0 0.00 0.01 0.00 86 1016.0
20200405050514 45 232 3.0 6.0 0.00 0.01 0.00 86 1016.0
20200405050006 45 223 3.0 6.0 0.00 0.01 0.00 86 1016.1
20200405045513 44 165 2.0 6.0 0.00 0.01 0.00 86 1016.1
20200405045020 44 236 1.0 5.0 0.00 0.01 0.00 87 1016.1
20200405044515 44 208 0.0 5.0 0.00 0.01 0.00 88 1016.1
20200405044009 44 214 0.0 2.0 0.00 0.01 0.00 88 1016.0
20200405043516 44 310 0.0 1.0 0.00 0.01 0.00 88 1016.2
20200405043008 44 310 0.0 3.0 0.00 0.01 0.00 88 1016.3
20200405042518 44 292 0.0 3.0 0.00 0.01 0.00 89 1016.3
20200405042008 44 296 0.0 0.0 0.00 0.01 0.00 89 1016.3
20200405041506 45 296 0.0 2.0 0.00 0.01 0.00 89 1016.3
20200405041014 45 296 0.0 6.0 0.00 0.02 0.00 89 1016.3
20200405040513 45 259 1.0 6.0 0.00 0.02 0.00 90 1016.2
20200405040022 45 212 2.0 7.0 0.00 0.02 0.00 91 1016.0
20200405035529 45 177 2.0 7.0 0.00 0.02 0.02 91 1015.8
20200405035019 45 183 2.0 7.0 0.00 0.02 0.02 91 1016.0
20200405034506 44 209 2.0 7.0 0.00 0.02 0.02 91 1015.8
20200405033954 44 199 2.0 7.0 0.00 0.02 0.02 92 1015.8
20200405033452 44 157 2.0 7.0 0.00 0.02 0.02 92 1015.8
20200405032936 44 175 2.0 6.0 0.00 0.02 0.02 92 1015.9
20200405032427 45 172 2.0 6.0 0.00 0.02 0.02 92 1015.9
20200405031908 45 188 2.0 6.0 0.00 0.02 0.02 92 1016.0
20200405031409 45 197 1.0 6.0 0.00 0.02 0.02 93 1016.1
20200405030851 44 170 2.0 6.0 0.00 0.02 0.02 92 1016.0
20200405030345 45 183 3.0 6.0 0.00 0.02 0.02 92 1016.1
20200405025832 45 176 3.0 5.0 0.00 0.02 0.02 93 1016.1
20200405025317 45 172 2.0 5.0 0.00 0.02 0.02 93 1016.2
20200405024805 45 171 2.0 5.0 0.00 0.02 0.02 93 1016.1
20200405024251 45 172 2.0 5.0 0.00 0.02 0.02 92 1016.2
20200405023747 45 166 2.0 5.0 0.00 0.02 0.02 92 1016.2
20200405023245 44 169 2.0 5.0 0.00 0.02 0.02 92 1016.2
20200405022744 45 162 1.0 5.0 0.00 0.02 0.02 93 1016.2
20200405022238 44 161 1.0 5.0 0.00 0.02 0.02 93 1016.2
20200405021748 44 154 1.0 5.0 0.00 0.02 0.02 93 1016.1
20200405021246 44 154 2.0 5.0 0.00 0.02 0.02 93 1016.2
20200405020737 44 153 2.0 5.0 0.00 0.02 0.02 93 1016.2
20200405020228 44 150 1.0 5.0 0.00 0.02 0.02 93 1016.3
20200405015727 44 172 0.0 3.0 0.00 0.02 0.02 93 1016.4
20200405015209 44 175 0.0 3.0 0.00 0.02 0.02 93 1016.5
20200405014703 44 184 0.0 2.0 0.00 0.02 0.02 93 1016.5
20200405014153 44 209 0.0 0.0 0.00 0.02 0.02 93 1016.6
20200405013701 43 209 0.0 0.0 0.00 0.02 0.02 93 1016.6
20200405013208 43 209 0.0 0.0 0.00 0.02 0.02 92 1016.5
20200405012657 43 209 0.0 0.0 0.00 0.02 0.02 92 1016.4
20200405012141 43 209 0.0 0.0 0.00 0.02 0.02 92 1016.5
20200405011633 43 209 0.0 0.0 0.00 0.02 0.02 92 1016.4
20200405011124 43 209 0.0 0.0 0.00 0.02 0.02 92 1016.5
20200405010609 43 209 0.0 0.0 0.00 0.02 0.02 91 1016.5
20200405010051 43 209 0.0 0.0 0.00 0.04 0.02 91 1016.4
20200405005549 44 209 0.0 0.0 0.00 0.04 0.02 91 1016.4
20200405005032 44 209 0.0 0.0 0.00 0.04 0.02 90 1016.4
20200405004516 44 209 0.0 0.0 0.00 0.04 0.02 89 1016.3
20200405004026 45 209 0.0 0.0 0.00 0.04 0.02 90 1016.2
20200405003511 45 209 0.0 0.0 0.00 0.04 0.02 89 1016.2
20200405003013 45 209 0.0 0.0 0.00 0.05 0.02 88 1016.3
20200405002505 46 209 0.0 0.0 0.00 0.05 0.02 88 1016.3
20200405001959 46 305 0.0 0.0 0.00 0.05 0.02 88 1016.3
20200405001458 46 305 0.0 0.0 0.00 0.06 0.02 87 1016.3
20200405000956 47 305 0.0 0.0 0.00 0.06 0.02 86 1016.2
20200405000504 47 305 0.0 0.0 0.00 0.06 0.02 85 1016.2
20200405000000 48 305 0.0 0.0 0.00 0.08 0.02 84 1016.1
20200404235506 48 305 0.0 0.0 0.00 0.08 0.02 83 1016.1
20200404235002 49 305 0.0 0.0 0.00 0.08 0.02 82 1016.1
20200404234510 50 305 0.0 0.0 0.00 0.08 0.02 80 1016.1
20200404234010 51 305 0.0 0.0 0.00 0.08 0.02 78 1016.1
20200404233517 52 305 0.0 0.0 0.00 0.08 0.02 77 1016.0
20200404233017 53 305 0.0 0.0 0.00 0.09 0.02 75 1016.0
20200404232509 54 305 0.0 0.0 0.00 0.09 0.02 74 1016.1
20200404232018 54 305 0.0 0.0 0.00 0.09 0.02 72 1016.1
20200404231523 55 305 0.0 0.0 0.00 0.09 0.02 72 1016.0
20200404231007 55 305 0.0 0.0 0.00 0.09 0.02 71 1016.0
20200404230500 55 305 0.0 0.0 0.00 0.09 0.02 70 1016.1
20200404230007 55 305 0.0 0.0 0.00 0.09 0.02 71 1016.1
20200404225453 55 305 0.0 0.0 0.00 0.09 0.02 73 1016.2
20200404224940 55 305 0.0 0.0 0.00 0.09 0.02 73 1016.2
20200404224443 55 305 0.0 0.0 0.00 0.09 0.02 73 1016.1
20200404223925 55 305 0.0 0.0 0.00 0.09 0.02 73 1016.1
20200404223415 55 305 0.0 2.0 0.00 0.09 0.02 75 1016.0
20200404222920 54 302 0.0 0.0 0.00 0.09 0.02 73 1016.0
20200404222429 54 309 0.0 1.0 0.00 0.09 0.02 74 1016.0
20200404221918 55 315 0.0 2.0 0.00 0.09 0.02 75 1016.0
20200404221419 55 74 0.0 0.0 0.00 0.09 0.02 76 1016.1
20200404220920 55 67 0.0 0.0 0.00 0.09 0.02 76 1016.1
20200404220416 55 67 0.0 3.0 0.00 0.09 0.02 77 1016.0
20200404215902 54 335 1.0 3.0 0.00 0.09 0.02 79 1016.1
20200404215409 54 344 0.0 0.0 0.00 0.09 0.02 80 1016.1
20200404214911 54 49 0.0 4.0 0.00 0.09 0.02 80 1016.1
20200404214411 54 349 0.0 0.0 0.00 0.09 0.02 79 1016.1
20200404213910 55 350 0.0 3.0 0.00 0.09 0.02 78 1016.2
20200404213405 55 330 0.0 3.0 0.00 0.09 0.02 80 1016.1
20200404212912 55 338 0.0 3.0 0.00 0.09 0.02 81 1016.1
20200404212417 54 350 0.0 1.0 0.00 0.09 0.02 84 1016.2
20200404211923 53 350 0.0 2.0 0.00 0.09 0.02 85 1016.1
20200404211432 52 12 0.0 0.0 0.00 0.09 0.02 85 1016.2
20200404210927 52 10 0.0 2.0 0.00 0.09 0.02 84 1016.2
20200404210418 52 0 0.0 1.0 0.00 0.09 0.02 85 1016.2
20200404205920 52 337 0.0 1.0 0.00 0.09 0.02 86 1016.3
20200404205425 52 310 0.0 4.0 0.00 0.09 0.02 86 1016.3
20200404204916 51 333 0.0 4.0 0.00 0.09 0.02 87 1016.3
20200404204403 51 346 0.0 4.0 0.00 0.09 0.02 86 1016.3
20200404203902 51 343 0.0 4.0 0.00 0.09 0.02 86 1016.3
20200404203353 51 337 0.0 2.0 0.00 0.09 0.02 87 1016.3
20200404202842 51 345 0.0 3.0 0.00 0.09 0.02 87 1016.3
20200404202335 51 345 0.0 3.0 0.00 0.09 0.02 87 1016.3
20200404201828 51 5 1.0 3.0 0.00 0.09 0.02 87 1016.4
20200404201335 51 9 1.0 7.0 0.00 0.09 0.02 87 1016.4
20200404200825 51 327 2.0 7.0 0.00 0.09 0.02 85 1016.4
20200404200325 51 321 2.0 7.0 0.00 0.09 0.02 84 1016.5
20200404195831 52 338 1.0 3.0 0.00 0.09 0.02 84 1016.5
20200404195313 52 328 0.0 3.0 0.00 0.09 0.02 84 1016.6
20200404194818 52 333 0.0 4.0 0.00 0.09 0.02 84 1016.6
20200404194301 51 314 0.0 4.0 0.00 0.09 0.02 85 1016.7
20200404193746 51 344 0.0 3.0 0.00 0.09 0.02 86 1016.7
20200404193243 51 324 0.0 3.0 0.00 0.09 0.02 87 1016.7
20200404192724 50 315 0.0 2.0 0.00 0.09 0.02 86 1016.8
20200404192225 50 322 0.0 0.0 0.00 0.09 0.02 85 1016.8
20200404191708 50 323 0.0 0.0 0.00 0.09 0.02 86 1016.9
20200404191214 50 322 0.0 3.0 0.00 0.09 0.02 87 1016.9
20200404190723 50 341 0.0 2.0 0.00 0.09 0.02 87 1017.0
20200404190205 50 318 0.0 3.0 0.00 0.09 0.02 85 1017.1
20200404185711 50 311 0.0 3.0 0.00 0.09 0.02 85 1017.1
20200404185157 51 327 0.0 2.0 0.00 0.09 0.02 85 1017.1
20200404184704 50 295 0.0 1.0 0.00 0.09 0.02 86 1017.1
20200404184145 50 283 0.0 2.0 0.00 0.09 0.02 85 1017.2
20200404183645 50 318 0.0 1.0 0.00 0.09 0.02 87 1017.2
20200404183146 50 318 0.0 0.0 0.00 0.09 0.02 87 1017.2
20200404182637 50 318 0.0 3.0 0.00 0.09 0.02 88 1017.2
20200404182146 49 320 0.0 1.0 0.00 0.09 0.02 88 1017.3
20200404181652 49 313 0.0 2.0 0.00 0.09 0.02 88 1017.3
20200404181145 49 288 0.0 1.0 0.00 0.09 0.02 88 1017.4
20200404180631 49 288 0.0 0.0 0.00 0.09 0.02 88 1017.4
20200404180130 49 285 0.0 0.0 0.00 0.09 0.02 87 1017.4
20200404175639 49 245 0.0 0.0 0.00 0.09 0.02 87 1017.4
20200404175143 49 245 0.0 0.0 0.00 0.09 0.02 87 1017.4
20200404174633 49 245 0.0 2.0 0.00 0.09 0.02 87 1017.4
20200404174115 49 252 0.0 0.0 0.00 0.09 0.02 86 1017.4
20200404173614 49 252 0.0 0.0 0.00 0.09 0.02 86 1017.4
20200404173118 50 252 0.0 1.0 0.00 0.09 0.02 86 1017.5
20200404172608 50 330 0.0 0.0 0.00 0.09 0.02 88 1017.4
20200404172115 49 330 0.0 0.0 0.00 0.09 0.02 88 1017.5
20200404171620 49 330 0.0 0.0 0.00 0.09 0.02 89 1017.5
20200404171120 49 330 0.0 1.0 0.00 0.09 0.02 90 1017.5
20200404170609 49 325 0.0 0.0 0.00 0.09 0.02 90 1017.5
20200404170050 49 244 0.0 0.0 0.00 0.09 0.02 91 1017.5
20200404165532 49 313 0.0 2.0 0.00 0.09 0.02 92 1017.6
20200404165016 48 284 0.0 2.0 0.00 0.09 0.02 93 1017.6
20200404164524 48 317 0.0 0.0 0.00 0.09 0.02 94 1017.7
20200404164022 48 309 0.0 3.0 0.00 0.09 0.02 95 1017.7
20200404163520 48 271 0.0 3.0 0.00 0.09 0.02 96 1017.7
20200404163003 48 313 0.0 3.0 0.00 0.09 0.02 97 1017.7
20200404162500 48 173 0.0 3.0 0.00 0.09 0.02 97 1017.8
20200404161940 47 65 0.0 1.0 0.00 0.09 0.02 97 1017.9
20200404161421 47 350 0.0 1.0 0.00 0.09 0.02 97 1017.9
20200404160902 46 350 0.0 0.0 0.00 0.09 0.02 97 1018.0
20200404160356 46 350 0.0 3.0 0.00 0.09 0.02 97 1018.0
20200404155859 46 309 0.0 2.0 0.00 0.09 0.02 97 1018.1
20200404155352 46 349 0.0 4.0 0.00 0.09 0.02 97 1018.2
20200404154850 46 344 1.0 4.0 0.00 0.09 0.02 97 1018.2
20200404154344 46 338 1.0 4.0 0.00 0.09 0.02 97 1018.4
20200404153835 46 314 0.0 3.0 0.00 0.09 0.02 97 1018.3
20200404153328 46 313 0.0 3.0 0.00 0.09 0.02 98 1018.3
20200404152821 46 346 1.0 3.0 0.00 0.09 0.02 98 1018.3
20200404152307 46 307 1.0 3.0 0.00 0.09 0.02 97 1018.4
20200404151806 46 350 0.0 4.0 0.00 0.09 0.02 98 1018.4
20200404151259 46 319 0.0 4.0 0.00 0.09 0.02 98 1018.3
20200404150809 46 346 0.0 4.0 0.00 0.09 0.02 98 1018.5
20200404150312 46 333 1.0 4.0 0.00 0.09 0.02 98 1018.4
20200404145809 46 333 0.0 3.0 0.00 0.09 0.02 98 1018.4
20200404145315 46 331 0.0 2.0 0.00 0.09 0.02 98 1018.5
20200404144807 46 311 0.0 3.0 0.00 0.09 0.02 98 1018.4
20200404144259 46 309 0.0 3.0 0.00 0.09 0.02 98 1018.4
20200404143757 45 309 0.0 2.0 0.00 0.09 0.02 98 1018.4
20200404143306 45 317 0.0 0.0 0.00 0.09 0.02 98 1018.4
20200404142754 45 317 0.0 2.0 0.00 0.09 0.02 98 1018.4
20200404142254 45 309 0.0 2.0 0.00 0.09 0.02 98 1018.4
20200404141736 45 299 0.0 1.0 0.00 0.09 0.02 98 1018.4
20200404141219 45 316 0.0 2.0 0.00 0.09 0.02 98 1018.5
20200404140714 45 298 0.0 1.0 0.00 0.09 0.02 98 1018.5
20200404140211 44 300 0.0 3.0 0.00 0.09 0.02 97 1018.4
20200404135706 44 303 0.0 3.0 0.00 0.09 0.02 98 1018.4
20200404135150 44 311 0.0 3.0 0.00 0.09 0.02 98 1018.3
20200404134700 44 327 0.0 3.0 0.00 0.09 0.02 98 1018.2
20200404134207 44 323 0.0 3.0 0.00 0.09 0.02 98 1018.2
20200404133704 44 316 0.0 4.0 0.00 0.09 0.02 98 1018.2
20200404133205 44 317 0.0 4.0 0.00 0.09 0.02 98 1018.1
20200404132709 44 288 1.0 4.0 0.00 0.09 0.02 97 1018.1
20200404132157 44 305 1.0 4.0 0.00 0.09 0.02 97 1018.1
20200404131639 44 325 1.0 4.0 0.00 0.09 0.02 97 1018.1
20200404131124 44 323 0.0 3.0 0.00 0.09 0.02 98 1018.0
20200404130620 44 310 0.0 2.0 0.00 0.09 0.02 98 1018.0
20200404130116 44 309 0.0 0.0 0.00 0.09 0.02 97 1018.0
20200404125611 44 318 0.0 2.0 0.00 0.09 0.02 97 1017.9
20200404125056 44 282 0.0 0.0 0.00 0.09 0.02 97 1017.9
20200404124605 43 282 0.0 2.0 0.00 0.09 0.02 98 1017.9
20200404124055 43 282 0.0 0.0 0.00 0.09 0.02 98 1017.8
20200404123559 43 282 0.0 0.0 0.00 0.09 0.02 97 1017.8
20200404123108 43 282 0.0 0.0 0.00 0.09 0.02 97 1017.8
20200404122558 43 282 0.0 0.0 0.00 0.09 0.02 97 1017.8
20200404122046 43 282 0.0 0.0 0.00 0.09 0.02 97 1017.7
20200404121540 43 282 0.0 0.0 0.00 0.09 0.02 97 1017.7
20200404121041 43 282 0.0 0.0 0.00 0.09 0.02 97 1017.6
20200404120536 43 282 0.0 0.0 0.00 0.09 0.02 97 1017.6
20200404120038 43 282 0.0 0.0 0.00 0.09 0.02 97 1017.6
20200404115519 42 282 0.0 0.0 0.00 0.09 0.02 97 1017.5
20200404115011 42 282 0.0 0.0 0.00 0.09 0.02 97 1017.5
20200404114503 42 282 0.0 1.0 0.00 0.09 0.02 97 1017.4
20200404114013 42 282 0.0 0.0 0.00 0.09 0.02 97 1017.3
20200404113519 42 282 0.0 0.0 0.00 0.09 0.02 97 1017.2
20200404113021 42 282 0.0 0.0 0.00 0.09 0.02 97 1017.2
20200404112522 42 282 0.0 0.0 0.00 0.09 0.02 97 1017.2
20200404112032 42 282 0.0 2.0 0.00 0.09 0.02 97 1017.2
20200404111515 42 282 0.0 2.0 0.00 0.09 0.02 97 1017.1
20200404111002 42 282 0.0 1.0 0.00 0.09 0.02 97 1017.0
20200404110506 42 282 0.0 2.0 0.00 0.09 0.02 97 1017.0
20200404110011 42 282 0.0 2.0 0.00 0.09 0.02 97 1016.9
20200404105507 42 282 0.0 0.0 0.00 0.09 0.02 97 1016.8
20200404104957 42 282 0.0 0.0 0.00 0.09 0.02 97 1016.7
20200404104448 42 282 0.0 1.0 0.00 0.09 0.02 97 1016.7
20200404103952 42 282 0.0 0.0 0.00 0.09 0.02 97 1016.6
20200404103455 42 282 0.0 3.0 0.00 0.09 0.02 97 1016.6
20200404102939 42 281 0.0 3.0 0.00 0.09 0.02 97 1016.6
20200404102433 42 285 1.0 3.0 0.00 0.09 0.02 97 1016.7
20200404101918 42 287 1.0 4.0 0.00 0.09 0.02 97 1016.6
20200404101400 42 270 1.0 4.0 0.00 0.08 0.01 97 1016.6
20200404100847 42 283 0.0 4.0 0.00 0.08 0.01 97 1016.6
20200404100346 42 284 0.0 4.0 0.00 0.08 0.01 97 1016.6
20200404095845 42 290 0.0 4.0 0.00 0.08 0.01 97 1016.6
20200404095351 42 283 0.0 2.0 0.00 0.08 0.01 97 1016.6
20200404094846 42 286 0.0 1.0 0.00 0.08 0.01 97 1016.5
20200404094343 42 286 0.0 0.0 0.00 0.08 0.01 97 1016.4
20200404093841 42 286 0.0 0.0 0.00 0.08 0.01 97 1016.4
20200404093324 42 286 0.0 0.0 0.00 0.08 0.01 97 1016.4
20200404092835 42 286 0.0 0.0 0.00 0.08 0.01 97 1016.4
20200404092317 42 286 0.0 0.0 0.00 0.08 0.01 97 1016.5
20200404091806 42 286 0.0 0.0 0.00 0.08 0.01 97 1016.5
20200404091316 42 286 0.0 1.0 0.00 0.08 0.01 97 1016.4
20200404090757 42 286 0.0 0.0 0.00 0.08 0.01 97 1016.4